Home   Weather   Landau in der Pfalz   Past weeks

Flag for Germany Past Weather in Landau in der Pfalz, Rhineland-Palatinate, Germany — Yesterday and Last 2 Weeks

Now
32 °F

Sunny.


Feels Like: 29 °F
Forecast: 15 / 28 °F
Wind: 3 mph from North

Location: Karlsruhe - Baden Wurttemberg

Current Time: Jan 20, 2017 at 3:06:29 pm

Latest Report: Jan 20, 2017 at 2:20 pm


Visibility: 10 mi

Pressure: 30.45 "Hg

Humidity: 60%

Dew Point: 19 °F

Location of Landau in der PfalzLocation

Past Weather in Landau in der Pfalz — Graph

°F

Landau in der Pfalz Temperature Yesterday

Maximum temperature yesterday: 30 °F (at 2:20 pm)
Minimum temperature yesterday: 19 °F (at 6:20 am)
Average temperature yesterday: 25 °F

High & Low Weather Summary for the Past Weeks

 TemperatureHumidityPressure
High46 °F (Jan 12, 11:20 pm)100% (Jan 6, 5:50 am)30.72 "Hg (Jan 6, 5:50 am)
Low9 °F (Jan 7, 1:50 am)55% (Jan 17, 3:50 pm)29.33 "Hg (Jan 12, 11:50 pm)
Average30 °F86%30.25 "Hg
* Reported Jan 5 1:20 pm — Jan 20 1:50 pm, Landau in der Pfalz, Weather by CustomWeather, © 2017

Note: Actual official high and low records may vary slightly from our data, if they occured in-between our weather recording intervals... More about our weather records

Advertising

Landau in der Pfalz Weather History for the Previous 24 Hours

Scroll right to see more
 ConditionsComfort  
Time TempWeatherWind HumidityBarometerVisibility
1:50 pm
Fri, Jan 20
32 °FSunny.3 mph60%30.45 "Hg10 mi
1:20 pm30 °FSunny.3 mph64%30.45 "Hg10 mi
12:50 pm30 °FPassing clouds.5 mph64%30.48 "HgN/A
12:20 pm30 °FSunny.2 mph64%30.48 "Hg10 mi
11:50 am28 °FSunny.3 mph64%30.48 "Hg10 mi
11:20 am27 °FPassing clouds.5 mph69%30.51 "HgN/A
10:50 am25 °FSunny.3 mph74%30.51 "Hg10 mi
10:20 am23 °FSunny.2 mph80%30.51 "Hg10 mi
9:50 am21 °FClear.No wind93%30.51 "Hg6 mi
9:20 am16 °FSunny.No wind93%30.51 "Hg10 mi
8:50 am14 °FSunny.1 mph100%30.51 "Hg10 mi
8:20 am14 °FSunny.2 mph85%30.51 "Hg10 mi
7:50 am19 °FClear.5 mph86%30.51 "Hg10 mi
7:20 am19 °FClear.5 mph86%30.48 "Hg10 mi
6:50 am18 °FClear.6 mph93%30.48 "Hg10 mi
6:20 am18 °FClear.3 mph86%30.48 "Hg10 mi
5:50 am16 °FClear.1 mph100%30.48 "Hg10 mi
5:20 am16 °FClear.2 mph93%30.48 "Hg10 mi
4:50 am16 °FClear.No wind93%30.48 "Hg10 mi
2:20 am23 °FClear.10 mph80%30.48 "Hg10 mi
1:50 am23 °FClear.12 mph80%30.48 "Hg10 mi
11:50 pm
Thu, Jan 19
23 °FClear.12 mph80%30.48 "Hg10 mi
11:20 pm23 °FClear.12 mph80%30.48 "Hg10 mi
10:50 pm25 °FClear.14 mph74%30.51 "Hg10 mi
10:20 pm25 °FClear.15 mph74%30.51 "Hg10 mi
9:50 pm25 °FClear.15 mph74%30.51 "Hg10 mi
9:20 pm25 °FClear.15 mph74%30.51 "Hg10 mi
8:50 pm25 °FClear.14 mph74%30.51 "Hg10 mi
8:20 pm27 °FClear.15 mph69%30.48 "Hg10 mi
7:50 pm27 °FClear.16 mph69%30.48 "Hg10 mi
7:20 pm27 °FClear.14 mph69%30.48 "Hg10 mi
6:50 pm27 °FClear.13 mph69%30.51 "Hg10 mi
6:20 pm27 °FClear.14 mph69%30.51 "Hg10 mi
5:50 pm27 °FClear.14 mph69%30.51 "Hg10 mi
5:20 pm28 °FClear.14 mph64%30.51 "Hg10 mi
4:50 pm28 °FSunny.12 mph64%30.51 "Hg10 mi
4:20 pm28 °FSunny.14 mph64%30.51 "Hg10 mi
3:50 pm30 °FSunny.14 mph59%30.51 "Hg10 mi
3:20 pm30 °FSunny.16 mph59%30.51 "Hg10 mi
Weather by CustomWeather, © 2017

See weather overviewHow to use our weather pages